Home   Weather   35°38'N, 139°44'E   Past weeks
Flag for Japan

Past Weather in 35°38'N, 139°44'E, Japan — Yesterday and Last 2 Weeks

Now
78 °F

Passing clouds.


Feels Like: 80 °F
Forecast: 85 / 72 °F
Wind: 6 mph from South

Location: Tokyo

Current Time: Jul 17, 2019 at 8:10:59 pm

Latest Report: Jul 17, 2019 at 6:00 pm


Visibility: 9 mi

Pressure: 29.92 "Hg

Humidity: 77%

Dew Point: 70 °F

Location of 35°38'N, 139°44'ELocation

Past Weather in 35°38'N, 139°44'E — Graph

°F

35°38'N, 139°44'E Temperature Yesterday

Maximum temperature yesterday: 71 °F (at 4:00 pm)
Minimum temperature yesterday: 66 °F (at 2:00 am)
Average temperature yesterday: 69 °F

High & Low Weather Summary for the Past Weeks

 TemperatureHumidityPressure
High83 °F (Jul 17, 3:00 pm)100% (Jul 3, 12:00 am)30.01 "Hg (Jul 3, 12:00 am)
Low64 °F (Jul 7, 11:00 pm)61% (Jul 10, 12:00 pm)29.56 "Hg (Jul 14, 12:00 pm)
Average71 °F90%29.78 "Hg
* Reported Jul 2 6:00 pm — Jul 17 6:00 pm, 35°38'N, 139°44'E. Weather by CustomWeather, © 2019

Note: Actual official high and low records may vary slightly from our data, if they occured in-between our weather recording intervals... More about our weather records

Advertising

35°38'N, 139°44'E Weather History for the Previous 24 Hours

Scroll right to see more
 ConditionsComfort  
Time TempWeatherWind HumidityBarometerVisibility
6:00 pm
Wed, Jul 17
78 °FPassing clouds.6 mph77%29.92 "Hg9 mi
5:00 pm81 °FWarm.6 mph72%29.90 "HgN/A
4:00 pm81 °FWarm.9 mph73%29.91 "HgN/A
3:00 pm83 °FScattered clouds.7 mph75%29.90 "Hg9 mi
2:00 pm82 °FWarm.6 mph77%29.91 "HgN/A
1:00 pm79 °FWarm.3 mph76%29.93 "HgN/A
12:00 pm79 °FOvercast.3 mph84%29.93 "Hg9 mi
11:00 am78 °FWarm.3 mph83%29.96 "HgN/A
10:00 am76 °FMild.3 mph89%29.96 "HgN/A
9:00 am72 °FOvercast.3 mph98%29.96 "Hg4 mi
8:00 am72 °FMild.5 mph100%29.96 "HgN/A
7:00 am71 °FMild.3 mph100%29.94 "HgN/A
6:00 am70 °FFog.2 mph100%29.94 "Hg2 mi
5:00 am69 °FMild.5 mph100%29.94 "HgN/A
4:00 am69 °FMild.3 mph100%29.91 "HgN/A
3:00 am69 °FFog.5 mph100%29.90 "Hg4 mi
2:00 am69 °FMild.5 mph100%29.92 "HgN/A
1:00 am69 °FMild.3 mph100%29.91 "HgN/A
12:00 am69 °FMild.3 mph100%29.94 "HgN/A
11:00 pm
Tue, Jul 16
69 °FMild.3 mph100%29.95 "HgN/A
10:00 pm70 °FMild.5 mph100%29.96 "HgN/A
9:00 pm70 °FOvercast.6 mph100%29.94 "Hg9 mi
8:00 pm70 °FMild.6 mph100%29.92 "HgN/A
Weather by CustomWeather, © 2019

See weather overview